| time (UTC) | temp F | wind direction | speed knots | gust knots | rain 1hr in | rain 24hr in | rain mn in | humidity % | barometer mb |
| 20260906050055 | 61 | 0 | 0.0 | 0.0 | 0.00 | 0.02 | 0.00 | 93 | 1014.7 |
| 20260906045530 | 61 | 0 | 0.0 | 0.0 | 0.00 | 0.02 | 0.00 | 93 | 1014.7 |
| 20260906045043 | 61 | 0 | 0.0 | 0.0 | 0.00 | 0.02 | 0.00 | 92 | 1014.6 |
| 20260906044545 | 61 | 0 | 0.0 | 0.0 | 0.00 | 0.02 | 0.00 | 92 | 1014.6 |
| 20260906044031 | 61 | 0 | 0.0 | 0.0 | 0.00 | 0.02 | 0.00 | 93 | 1014.5 |
| 20260906043533 | 61 | 0 | 0.0 | 0.0 | 0.00 | 0.02 | 0.00 | 92 | 1014.4 |
| 20260906043041 | 61 | 0 | 0.0 | 0.0 | 0.00 | 0.02 | 0.00 | 93 | 1014.5 |
| 20260906042527 | 61 | 194 | 0.0 | 0.0 | 0.00 | 0.02 | 0.00 | 93 | 1014.5 |
| 20260906042029 | 61 | 193 | 0.0 | 1.7 | 0.00 | 0.02 | 0.00 | 93 | 1014.4 |
| 20260906041552 | 62 | 0 | 0.0 | 1.7 | 0.00 | 0.02 | 0.00 | 94 | 1014.4 |
| 20260906041026 | 62 | 212 | 0.0 | 1.7 | 0.00 | 0.02 | 0.00 | 94 | 1014.4 |
| 20260906040530 | 62 | 0 | 0.0 | 0.0 | 0.00 | 0.02 | 0.00 | 95 | 1014.5 |
| 20260906040050 | 62 | 0 | 0.0 | 0.0 | 0.00 | 0.02 | 0.00 | 95 | 1014.5 |
| 20260906035530 | 62 | 0 | 0.0 | 0.0 | 0.00 | 0.02 | 0.02 | 95 | 1014.4 |
| 20260906035029 | 62 | 0 | 0.0 | 0.0 | 0.00 | 0.02 | 0.02 | 95 | 1014.4 |
| 20260906034545 | 62 | 0 | 0.0 | 0.0 | 0.00 | 0.02 | 0.02 | 94 | 1014.2 |
| 20260906034029 | 62 | 0 | 0.0 | 0.0 | 0.00 | 0.02 | 0.02 | 94 | 1014.3 |
| 20260906033527 | 62 | 0 | 0.0 | 0.0 | 0.00 | 0.02 | 0.02 | 94 | 1014.3 |
| 20260906033053 | 62 | 0 | 0.0 | 0.0 | 0.01 | 0.02 | 0.02 | 94 | 1014.4 |
| 20260906032530 | 62 | 0 | 0.0 | 0.9 | 0.01 | 0.02 | 0.02 | 94 | 1014.0 |
| 20260906032030 | 62 | 0 | 0.0 | 0.9 | 0.01 | 0.02 | 0.02 | 93 | 1013.9 |
| 20260906031559 | 62 | 0 | 0.0 | 0.9 | 0.01 | 0.02 | 0.02 | 93 | 1014.0 |
| 20260906031029 | 62 | 0 | 0.0 | 0.9 | 0.01 | 0.02 | 0.02 | 93 | 1014.1 |
| 20260906030529 | 62 | 0 | 0.0 | 0.0 | 0.01 | 0.02 | 0.02 | 93 | 1014.0 |
| 20260906030048 | 63 | 0 | 0.0 | 0.9 | 0.01 | 0.02 | 0.02 | 93 | 1013.7 |
| 20260906025529 | 63 | 0 | 0.0 | 0.9 | 0.01 | 0.02 | 0.02 | 93 | 1013.8 |
| 20260906025032 | 63 | 206 | 0.0 | 0.9 | 0.01 | 0.02 | 0.02 | 92 | 1013.6 |
| 20260906024557 | 64 | 0 | 0.0 | 0.0 | 0.01 | 0.02 | 0.02 | 91 | 1013.6 |
| 20260906024030 | 64 | 0 | 0.0 | 2.6 | 0.01 | 0.02 | 0.02 | 91 | 1013.6 |
| 20260906023529 | 64 | 0 | 0.0 | 2.6 | 0.01 | 0.02 | 0.02 | 90 | 1013.6 |
| 20260906023044 | 65 | 158 | 0.9 | 2.6 | 0.00 | 0.01 | 0.01 | 89 | 1013.7 |
| 20260906022529 | 65 | 0 | 0.0 | 0.0 | 0.00 | 0.01 | 0.01 | 90 | 1013.7 |
| 20260906022030 | 65 | 0 | 0.0 | 0.9 | 0.00 | 0.01 | 0.01 | 91 | 1013.6 |
| 20260906021551 | 65 | 0 | 0.0 | 0.9 | 0.00 | 0.01 | 0.01 | 91 | 1013.5 |
| 20260906021030 | 65 | 0 | 0.0 | 0.9 | 0.00 | 0.01 | 0.01 | 92 | 1013.5 |
| 20260906020529 | 65 | 0 | 0.0 | 0.9 | 0.00 | 0.01 | 0.01 | 92 | 1013.5 |
| 20260906020056 | 65 | 0 | 0.0 | 0.9 | 0.00 | 0.01 | 0.01 | 91 | 1013.5 |
| 20260906015528 | 65 | 0 | 0.0 | 0.9 | 0.00 | 0.01 | 0.01 | 91 | 1013.3 |
| 20260906015030 | 65 | 278 | 0.0 | 0.9 | 0.00 | 0.01 | 0.01 | 92 | 1013.3 |
| 20260906014554 | 65 | 0 | 0.0 | 0.0 | 0.00 | 0.01 | 0.01 | 92 | 1013.3 |
| 20260906014028 | 65 | 0 | 0.0 | 1.7 | 0.00 | 0.01 | 0.01 | 92 | 1013.2 |
| 20260906013529 | 65 | 0 | 0.0 | 1.7 | 0.00 | 0.01 | 0.01 | 91 | 1013.4 |
| 20260906013054 | 65 | 0 | 0.0 | 0.9 | 0.00 | 0.01 | 0.01 | 92 | 1013.4 |
| 20260906012531 | 65 | 0 | 0.0 | 0.9 | 0.00 | 0.01 | 0.01 | 92 | 1013.3 |
| 20260906012028 | 65 | 0 | 0.0 | 0.9 | 0.00 | 0.01 | 0.01 | 92 | 1013.3 |
| 20260906011543 | 65 | 0 | 0.0 | 0.9 | 0.00 | 0.01 | 0.01 | 92 | 1013.2 |
| 20260906011029 | 65 | 0 | 0.0 | 0.9 | 0.00 | 0.01 | 0.01 | 92 | 1013.2 |
| 20260906010528 | 65 | 0 | 0.0 | 0.0 | 0.00 | 0.01 | 0.01 | 93 | 1013.2 |
| 20260906010055 | 64 | 0 | 0.0 | 0.0 | 0.00 | 0.01 | 0.01 | 92 | 1013.1 |
| 20260906005529 | 64 | 0 | 0.0 | 0.0 | 0.00 | 0.01 | 0.01 | 92 | 1013.1 |
| 20260906005029 | 65 | 0 | 0.0 | 0.0 | 0.00 | 0.01 | 0.01 | 92 | 1013.0 |
| 20260906004550 | 65 | 0 | 0.0 | 0.0 | 0.00 | 0.01 | 0.01 | 92 | 1012.9 |
| 20260906004029 | 65 | 0 | 0.0 | 0.0 | 0.00 | 0.01 | 0.01 | 91 | 1012.9 |
| 20260906003530 | 65 | 0 | 0.0 | 0.0 | 0.00 | 0.01 | 0.01 | 91 | 1012.8 |
| 20260906003042 | 65 | 0 | 0.0 | 0.0 | 0.00 | 0.01 | 0.01 | 91 | 1012.8 |
| 20260906002529 | 65 | 0 | 0.0 | 0.0 | 0.00 | 0.01 | 0.01 | 91 | 1012.5 |
| 20260906002028 | 65 | 0 | 0.0 | 0.0 | 0.00 | 0.01 | 0.01 | 91 | 1012.7 |
| 20260906001552 | 65 | 0 | 0.0 | 0.0 | 0.00 | 0.01 | 0.01 | 91 | 1012.6 |
| 20260906001029 | 65 | 0 | 0.0 | 0.0 | 0.00 | 0.01 | 0.01 | 90 | 1012.5 |
| 20260906000529 | 65 | 0 | 0.0 | 0.9 | 0.00 | 0.01 | 0.01 | 90 | 1012.4 |
| 20260906000053 | 65 | 0 | 0.0 | 0.9 | 0.00 | 0.01 | 0.01 | 89 | 1012.2 |
| 20260905235527 | 66 | 0 | 0.0 | 0.9 | 0.00 | 0.01 | 0.01 | 88 | 1012.4 |
| 20260905235030 | 66 | 0 | 0.0 | 0.9 | 0.00 | 0.01 | 0.01 | 88 | 1012.2 |
| 20260905234547 | 66 | 0 | 0.0 | 0.9 | 0.00 | 0.01 | 0.01 | 87 | 1012.1 |
| 20260905234029 | 66 | 0 | 0.0 | 0.0 | 0.00 | 0.01 | 0.01 | 87 | 1012.0 |
| 20260905233529 | 66 | 0 | 0.0 | 0.0 | 0.00 | 0.01 | 0.01 | 86 | 1011.9 |
| 20260905233047 | 67 | 0 | 0.0 | 0.0 | 0.00 | 0.01 | 0.01 | 85 | 1011.9 |
| 20260905232528 | 67 | 0 | 0.0 | 0.0 | 0.00 | 0.01 | 0.01 | 85 | 1011.8 |
| 20260905232030 | 67 | 0 | 0.0 | 0.0 | 0.00 | 0.01 | 0.01 | 85 | 1011.8 |
| 20260905231546 | 68 | 0 | 0.0 | 0.0 | 0.00 | 0.01 | 0.01 | 85 | 1011.8 |
| 20260905231028 | 68 | 0 | 0.0 | 0.0 | 0.00 | 0.01 | 0.01 | 85 | 1011.8 |
| 20260905230527 | 69 | 0 | 0.0 | 0.9 | 0.00 | 0.01 | 0.01 | 84 | 1011.8 |
| 20260905230055 | 69 | 0 | 0.0 | 0.9 | 0.00 | 0.01 | 0.01 | 84 | 1011.8 |
| 20260905225527 | 69 | 0 | 0.0 | 0.9 | 0.00 | 0.01 | 0.01 | 82 | 1011.7 |
| 20260905225027 | 69 | 0 | 0.0 | 0.0 | 0.00 | 0.01 | 0.01 | 85 | 1011.8 |
| 20260905224601 | 69 | 0 | 0.0 | 0.0 | 0.00 | 0.01 | 0.01 | 85 | 1011.7 |
| 20260905224028 | 70 | 0 | 0.0 | 0.0 | 0.00 | 0.01 | 0.01 | 84 | 1011.8 |
| 20260905223531 | 70 | 0 | 0.0 | 0.0 | 0.00 | 0.01 | 0.01 | 83 | 1011.7 |
| 20260905223047 | 70 | 0 | 0.0 | 0.0 | 0.00 | 0.01 | 0.01 | 82 | 1011.8 |
| 20260905222529 | 70 | 0 | 0.0 | 0.9 | 0.00 | 0.01 | 0.01 | 82 | 1011.6 |
| 20260905222027 | 71 | 0 | 0.0 | 0.9 | 0.00 | 0.01 | 0.01 | 81 | 1011.4 |
| 20260905221601 | 72 | 0 | 0.0 | 1.7 | 0.00 | 0.01 | 0.01 | 80 | 1011.3 |
| 20260905221033 | 72 | 5 | 0.9 | 1.7 | 0.00 | 0.01 | 0.01 | 75 | 1011.4 |
| 20260905220529 | 72 | 342 | 0.0 | 0.9 | 0.00 | 0.01 | 0.01 | 75 | 1011.3 |
| 20260905220104 | 73 | 325 | 0.0 | 0.9 | 0.00 | 0.01 | 0.01 | 75 | 1011.2 |
| 20260905215529 | 73 | 0 | 0.0 | 0.9 | 0.00 | 0.01 | 0.01 | 74 | 1011.2 |
| 20260905215028 | 73 | 0 | 0.0 | 2.6 | 0.00 | 0.01 | 0.01 | 73 | 1011.2 |
| 20260905214547 | 73 | 346 | 0.9 | 3.5 | 0.00 | 0.01 | 0.01 | 71 | 1011.1 |
| 20260905214030 | 74 | 289 | 0.9 | 3.5 | 0.00 | 0.01 | 0.01 | 72 | 1011.2 |
| 20260905213531 | 74 | 272 | 0.0 | 2.6 | 0.00 | 0.01 | 0.01 | 73 | 1011.0 |
| 20260905213041 | 72 | 0 | 0.0 | 0.9 | 0.00 | 0.01 | 0.01 | 79 | 1011.2 |
| 20260905212532 | 72 | 299 | 0.0 | 0.9 | 0.00 | 0.01 | 0.01 | 78 | 1011.1 |
| 20260905212030 | 72 | 0 | 0.0 | 1.7 | 0.00 | 0.01 | 0.01 | 76 | 1011.1 |
| 20260905211612 | 73 | 312 | 0.0 | 2.6 | 0.00 | 0.01 | 0.01 | 75 | 1010.9 |
| 20260905211029 | 74 | 292 | 0.0 | 2.6 | 0.00 | 0.01 | 0.01 | 74 | 1010.8 |
| 20260905210529 | 74 | 329 | 0.9 | 2.6 | 0.00 | 0.01 | 0.01 | 71 | 1010.7 |
| 20260905210054 | 75 | 0 | 0.0 | 4.3 | 0.00 | 0.01 | 0.01 | 72 | 1010.7 |
| 20260905205527 | 75 | 0 | 0.9 | 4.3 | 0.00 | 0.01 | 0.01 | 69 | 1010.8 |
| 20260905205029 | 75 | 273 | 0.9 | 3.5 | 0.00 | 0.01 | 0.01 | 68 | 1010.7 |
| 20260905204557 | 75 | 295 | 0.9 | 5.2 | 0.00 | 0.01 | 0.01 | 67 | 1010.8 |
| 20260905204029 | 76 | 104 | 2.6 | 5.2 | 0.00 | 0.01 | 0.01 | 67 | 1010.8 |
| 20260905203529 | 77 | 285 | 1.7 | 6.1 | 0.00 | 0.01 | 0.01 | 66 | 1010.7 |
| 20260905203110 | 77 | 354 | 1.7 | 6.1 | 0.00 | 0.01 | 0.01 | 64 | 1010.6 |
| 20260905202531 | 77 | 313 | 1.7 | 5.2 | 0.00 | 0.01 | 0.01 | 64 | 1010.5 |
| 20260905202029 | 77 | 333 | 1.7 | 3.5 | 0.00 | 0.01 | 0.01 | 67 | 1010.7 |
| 20260905201546 | 77 | 274 | 0.9 | 3.5 | 0.00 | 0.01 | 0.01 | 65 | 1010.6 |
| 20260905201029 | 76 | 205 | 0.0 | 1.7 | 0.00 | 0.01 | 0.01 | 68 | 1010.5 |
| 20260905200531 | 74 | 243 | 0.0 | 1.7 | 0.00 | 0.01 | 0.01 | 71 | 1010.5 |
| 20260905200053 | 74 | 0 | 0.0 | 0.9 | 0.00 | 0.01 | 0.01 | 74 | 1010.5 |
| 20260905195530 | 74 | 23 | 0.0 | 0.9 | 0.00 | 0.01 | 0.01 | 73 | 1010.5 |
| 20260905195031 | 75 | 0 | 0.0 | 5.2 | 0.00 | 0.01 | 0.01 | 74 | 1010.5 |
| 20260905194549 | 75 | 0 | 0.0 | 5.2 | 0.00 | 0.01 | 0.01 | 68 | 1010.5 |
| 20260905194029 | 75 | 47 | 1.7 | 5.2 | 0.00 | 0.01 | 0.01 | 67 | 1010.6 |
| 20260905193529 | 75 | 299 | 1.7 | 5.2 | 0.00 | 0.01 | 0.01 | 67 | 1010.7 |
| 20260905193044 | 74 | 134 | 0.9 | 5.2 | 0.00 | 0.01 | 0.01 | 68 | 1010.5 |
| 20260905192528 | 74 | 102 | 2.6 | 5.2 | 0.00 | 0.01 | 0.01 | 68 | 1010.6 |
| 20260905192028 | 74 | 280 | 1.7 | 4.3 | 0.00 | 0.01 | 0.01 | 70 | 1010.4 |
| 20260905191545 | 74 | 334 | 1.7 | 4.3 | 0.00 | 0.01 | 0.01 | 68 | 1010.3 |
| 20260905191029 | 74 | 349 | 0.9 | 4.3 | 0.00 | 0.01 | 0.01 | 70 | 1010.6 |
| 20260905190529 | 74 | 322 | 0.9 | 5.2 | 0.00 | 0.01 | 0.01 | 70 | 1010.5 |
| 20260905190049 | 74 | 333 | 0.9 | 5.2 | 0.00 | 0.01 | 0.01 | 69 | 1010.6 |
| 20260905185528 | 74 | 299 | 0.9 | 5.2 | 0.00 | 0.01 | 0.01 | 69 | 1010.5 |
| 20260905185028 | 74 | 295 | 1.7 | 4.3 | 0.00 | 0.01 | 0.01 | 67 | 1010.4 |
| 20260905184550 | 74 | 308 | 1.7 | 4.3 | 0.00 | 0.01 | 0.01 | 65 | 1010.4 |
| 20260905184029 | 74 | 49 | 1.7 | 4.3 | 0.00 | 0.01 | 0.01 | 67 | 1010.6 |
| 20260905183528 | 74 | 17 | 1.7 | 4.3 | 0.00 | 0.01 | 0.01 | 69 | 1010.7 |
| 20260905183045 | 74 | 296 | 0.9 | 4.3 | 0.00 | 0.01 | 0.01 | 70 | 1010.6 |
| 20260905182528 | 74 | 275 | 0.0 | 3.5 | 0.00 | 0.01 | 0.01 | 70 | 1010.5 |
| 20260905182029 | 74 | 319 | 0.0 | 3.5 | 0.00 | 0.01 | 0.01 | 69 | 1010.6 |
| 20260905181601 | 74 | 15 | 0.9 | 3.5 | 0.00 | 0.01 | 0.01 | 69 | 1010.5 |
| 20260905181027 | 74 | 11 | 1.7 | 3.5 | 0.00 | 0.01 | 0.01 | 68 | 1010.5 |
| 20260905180529 | 74 | 290 | 0.9 | 3.5 | 0.00 | 0.01 | 0.01 | 71 | 1010.8 |
| 20260905180051 | 74 | 279 | 0.9 | 3.5 | 0.00 | 0.01 | 0.01 | 68 | 1010.7 |
| 20260905175530 | 74 | 0 | 0.9 | 3.5 | 0.00 | 0.01 | 0.01 | 71 | 1010.6 |
| 20260905175029 | 74 | 252 | 0.9 | 7.8 | 0.00 | 0.01 | 0.01 | 68 | 1010.6 |
| 20260905174551 | 74 | 0 | 0.9 | 7.8 | 0.00 | 0.01 | 0.01 | 69 | 1010.7 |
| 20260905174030 | 74 | 160 | 2.6 | 7.8 | 0.00 | 0.01 | 0.01 | 65 | 1010.7 |
| 20260905173529 | 75 | 343 | 1.7 | 5.2 | 0.00 | 0.01 | 0.01 | 66 | 1010.7 |
| 20260905173045 | 75 | 278 | 0.9 | 5.2 | 0.00 | 0.01 | 0.01 | 69 | 1010.7 |
| 20260905172529 | 75 | 257 | 0.9 | 6.1 | 0.00 | 0.01 | 0.01 | 67 | 1010.8 |
| 20260905172029 | 74 | 32 | 0.9 | 7.8 | 0.00 | 0.01 | 0.01 | 68 | 1010.7 |
| 20260905171552 | 75 | 288 | 3.5 | 7.8 | 0.00 | 0.01 | 0.01 | 66 | 1010.7 |
| 20260905171030 | 75 | 240 | 0.9 | 3.5 | 0.00 | 0.01 | 0.01 | 69 | 1010.7 |
| 20260905170527 | 75 | 280 | 1.7 | 5.2 | 0.00 | 0.01 | 0.01 | 68 | 1010.8 |
| 20260905170053 | 75 | 345 | 1.7 | 6.1 | 0.00 | 0.01 | 0.01 | 67 | 1010.8 |
| 20260905165533 | 74 | 247 | 2.6 | 6.1 | 0.00 | 0.01 | 0.01 | 64 | 1010.6 |
| 20260905165029 | 75 | 288 | 1.7 | 6.1 | 0.00 | 0.01 | 0.01 | 66 | 1010.7 |
| 20260905164542 | 74 | 170 | 1.7 | 6.1 | 0.00 | 0.01 | 0.01 | 66 | 1010.8 |
| 20260905164029 | 74 | 154 | 2.6 | 7.8 | 0.00 | 0.01 | 0.01 | 70 | 1010.7 |
| 20260905163528 | 75 | 290 | 3.5 | 7.8 | 0.00 | 0.01 | 0.01 | 66 | 1010.7 |
| 20260905163043 | 76 | 272 | 1.7 | 5.2 | 0.00 | 0.01 | 0.01 | 67 | 1010.7 |
| 20260905162527 | 75 | 271 | 0.9 | 6.1 | 0.00 | 0.01 | 0.01 | 70 | 1010.6 |
| 20260905162028 | 75 | 62 | 1.7 | 7.8 | 0.00 | 0.01 | 0.01 | 68 | 1010.8 |
| 20260905161541 | 75 | 272 | 1.7 | 7.8 | 0.00 | 0.01 | 0.01 | 68 | 1010.7 |
| 20260905161030 | 75 | 278 | 2.6 | 7.8 | 0.00 | 0.01 | 0.01 | 66 | 1010.8 |
| 20260905160526 | 75 | 160 | 1.7 | 6.1 | 0.00 | 0.01 | 0.01 | 67 | 1010.8 |
| 20260905160115 | 75 | 307 | 1.7 | 6.1 | 0.00 | 0.01 | 0.01 | 69 | 1010.8 |
| 20260905155529 | 75 | 323 | 0.9 | 6.1 | 0.00 | 0.01 | 0.01 | 68 | 1011.1 |
| 20260905155028 | 74 | 101 | 1.7 | 8.7 | 0.00 | 0.01 | 0.01 | 70 | 1011.1 |
| 20260905154559 | 73 | 110 | 1.7 | 8.7 | 0.00 | 0.01 | 0.01 | 70 | 1011.1 |
| 20260905154029 | 73 | 224 | 1.7 | 8.7 | 0.00 | 0.01 | 0.01 | 73 | 1011.2 |
| 20260905153529 | 72 | 286 | 1.7 | 7.0 | 0.00 | 0.01 | 0.01 | 76 | 1011.2 |
| 20260905153053 | 72 | 319 | 2.6 | 7.0 | 0.00 | 0.01 | 0.01 | 72 | 1011.1 |
| 20260905152526 | 72 | 271 | 1.7 | 7.8 | 0.00 | 0.01 | 0.01 | 73 | 1011.2 |
| 20260905152025 | 72 | 314 | 1.7 | 7.8 | 0.00 | 0.01 | 0.01 | 73 | 1011.2 |
| 20260905151547 | 72 | 305 | 1.7 | 7.8 | 0.00 | 0.01 | 0.01 | 73 | 1011.3 |
| 20260905151029 | 72 | 112 | 0.9 | 5.2 | 0.00 | 0.01 | 0.01 | 73 | 1011.2 |
| 20260905150529 | 72 | 302 | 1.7 | 5.2 | 0.00 | 0.01 | 0.01 | 73 | 1011.1 |
| 20260905150046 | 72 | 16 | 1.7 | 7.0 | 0.01 | 0.01 | 0.01 | 74 | 1011.2 |
| 20260905145529 | 72 | 348 | 0.9 | 7.0 | 0.01 | 0.01 | 0.01 | 75 | 1011.2 |
| 20260905145029 | 72 | 11 | 0.9 | 6.1 | 0.01 | 0.01 | 0.01 | 76 | 1011.0 |
| 20260905144552 | 72 | 37 | 1.7 | 6.1 | 0.01 | 0.01 | 0.01 | 76 | 1011.2 |
| 20260905144032 | 71 | 285 | 2.6 | 7.8 | 0.01 | 0.01 | 0.01 | 74 | 1011.3 |
| 20260905143531 | 71 | 131 | 1.7 | 10.4 | 0.01 | 0.01 | 0.01 | 75 | 1011.2 |
| 20260905143055 | 70 | 297 | 3.5 | 10.4 | 0.01 | 0.01 | 0.01 | 75 | 1011.3 |
| 20260905142530 | 71 | 286 | 3.5 | 7.0 | 0.01 | 0.01 | 0.01 | 75 | 1011.4 |
| 20260905142030 | 70 | 275 | 3.5 | 7.0 | 0.01 | 0.01 | 0.01 | 76 | 1011.4 |
| 20260905141551 | 70 | 247 | 2.6 | 7.0 | 0.01 | 0.01 | 0.01 | 77 | 1011.3 |
| 20260905141030 | 69 | 329 | 2.6 | 7.8 | 0.01 | 0.01 | 0.01 | 77 | 1011.4 |
| 20260905140532 | 69 | 286 | 2.6 | 7.8 | 0.01 | 0.01 | 0.01 | 77 | 1011.5 |
| 20260905140052 | 69 | 162 | 1.7 | 6.1 | 0.00 | 0.00 | 0.00 | 81 | 1011.3 |
| 20260905135528 | 69 | 203 | 1.7 | 6.1 | 0.00 | 0.00 | 0.00 | 81 | 1011.3 |
| 20260905135027 | 68 | 269 | 1.7 | 5.2 | 0.00 | 0.00 | 0.00 | 84 | 1011.4 |
| 20260905134549 | 67 | 56 | 1.7 | 4.3 | 0.00 | 0.00 | 0.00 | 85 | 1011.5 |
| 20260905134030 | 67 | 241 | 0.9 | 4.3 | 0.00 | 0.00 | 0.00 | 87 | 1011.5 |
| 20260905133529 | 66 | 276 | 0.9 | 4.3 | 0.00 | 0.00 | 0.00 | 89 | 1011.3 |
| 20260905133046 | 65 | 347 | 0.9 | 3.5 | 0.00 | 0.00 | 0.00 | 92 | 1011.5 |
| 20260905132532 | 65 | 309 | 0.0 | 3.5 | 0.00 | 0.00 | 0.00 | 94 | 1011.3 |
| 20260905132030 | 64 | 0 | 0.0 | 0.9 | 0.00 | 0.00 | 0.00 | 98 | 1011.4 |
| 20260905131600 | 63 | 356 | 0.0 | 0.9 | 0.00 | 0.00 | 0.00 | 99 | 1011.3 |
| 20260905131029 | 63 | 358 | 0.0 | 0.9 | 0.00 | 0.00 | 0.00 | 99 | 1011.5 |
| 20260905130529 | 62 | 347 | 0.0 | 0.9 | 0.00 | 0.00 | 0.00 | 99 | 1011.5 |
| 20260905130051 | 62 | 0 | 0.0 | 0.0 | 0.00 | 0.00 | 0.00 | 99 | 1011.6 |
| 20260905125528 | 62 | 0 | 0.0 | 0.0 | 0.00 | 0.00 | 0.00 | 99 | 1011.5 |
| 20260905125029 | 61 | 0 | 0.0 | 0.0 | 0.00 | 0.00 | 0.00 | 99 | 1011.7 |
| 20260905124554 | 61 | 0 | 0.0 | 0.0 | 0.00 | 0.00 | 0.00 | 99 | 1011.7 |
| 20260905124033 | 61 | 0 | 0.0 | 0.0 | 0.00 | 0.00 | 0.00 | 99 | 1011.7 |
| 20260905123530 | 61 | 0 | 0.0 | 0.0 | 0.00 | 0.00 | 0.00 | 99 | 1011.6 |
| 20260905123046 | 60 | 0 | 0.0 | 0.0 | 0.00 | 0.00 | 0.00 | 99 | 1011.6 |
| 20260905122529 | 60 | 0 | 0.0 | 0.0 | 0.00 | 0.00 | 0.00 | 99 | 1011.6 |
| 20260905122028 | 60 | 0 | 0.0 | 0.0 | 0.00 | 0.00 | 0.00 | 99 | 1011.5 |
| 20260905121556 | 60 | 0 | 0.0 | 0.0 | 0.00 | 0.00 | 0.00 | 99 | 1011.4 |
| 20260905121028 | 59 | 0 | 0.0 | 0.0 | 0.00 | 0.00 | 0.00 | 99 | 1011.3 |
| 20260905120530 | 59 | 0 | 0.0 | 0.0 | 0.00 | 0.00 | 0.00 | 99 | 1011.3 |
| 20260905120110 | 59 | 0 | 0.0 | 0.0 | 0.00 | 0.00 | 0.00 | 99 | 1011.3 |
| 20260905115528 | 58 | 0 | 0.0 | 0.0 | 0.00 | 0.00 | 0.00 | 99 | 1011.2 |
| 20260905115029 | 58 | 0 | 0.0 | 0.0 | 0.00 | 0.00 | 0.00 | 99 | 1011.2 |
| 20260905114551 | 57 | 0 | 0.0 | 0.0 | 0.00 | 0.00 | 0.00 | 99 | 1011.1 |
| 20260905114029 | 57 | 0 | 0.0 | 0.0 | 0.00 | 0.00 | 0.00 | 99 | 1011.1 |
| 20260905113528 | 57 | 0 | 0.0 | 0.0 | 0.00 | 0.00 | 0.00 | 99 | 1010.9 |
| 20260905113048 | 56 | 0 | 0.0 | 0.0 | 0.00 | 0.00 | 0.00 | 99 | 1010.9 |
| 20260905112529 | 56 | 0 | 0.0 | 0.0 | 0.00 | 0.00 | 0.00 | 99 | 1011.0 |
| 20260905112028 | 56 | 0 | 0.0 | 0.0 | 0.00 | 0.00 | 0.00 | 99 | 1010.9 |
| 20260905111609 | 56 | 0 | 0.0 | 0.0 | 0.00 | 0.00 | 0.00 | 99 | 1010.9 |
| 20260905111029 | 56 | 0 | 0.0 | 0.0 | 0.00 | 0.00 | 0.00 | 98 | 1010.8 |
| 20260905110531 | 55 | 0 | 0.0 | 0.0 | 0.00 | 0.00 | 0.00 | 98 | 1010.6 |
| 20260905110057 | 55 | 0 | 0.0 | 0.0 | 0.00 | 0.00 | 0.00 | 98 | 1010.7 |
| 20260905105529 | 55 | 0 | 0.0 | 0.0 | 0.00 | 0.00 | 0.00 | 98 | 1010.6 |
| 20260905105030 | 55 | 0 | 0.0 | 0.0 | 0.00 | 0.00 | 0.00 | 98 | 1010.4 |
| 20260905104548 | 55 | 0 | 0.0 | 0.0 | 0.00 | 0.00 | 0.00 | 98 | 1010.5 |
| 20260905104029 | 56 | 0 | 0.0 | 0.0 | 0.00 | 0.00 | 0.00 | 98 | 1010.4 |
| 20260905103529 | 56 | 0 | 0.0 | 0.0 | 0.00 | 0.00 | 0.00 | 98 | 1010.4 |
| 20260905103053 | 56 | 0 | 0.0 | 0.0 | 0.00 | 0.00 | 0.00 | 98 | 1010.3 |
| 20260905102528 | 56 | 0 | 0.0 | 0.0 | 0.00 | 0.00 | 0.00 | 98 | 1010.3 |
| 20260905102027 | 56 | 0 | 0.0 | 0.0 | 0.00 | 0.00 | 0.00 | 98 | 1010.3 |
| 20260905101548 | 56 | 0 | 0.0 | 0.0 | 0.00 | 0.00 | 0.00 | 98 | 1010.3 |
| 20260905101029 | 56 | 0 | 0.0 | 0.0 | 0.00 | 0.00 | 0.00 | 98 | 1010.2 |
| 20260905100529 | 56 | 0 | 0.0 | 0.0 | 0.00 | 0.00 | 0.00 | 98 | 1010.3 |
| 20260905100055 | 55 | 0 | 0.0 | 0.0 | 0.00 | 0.00 | 0.00 | 98 | 1010.3 |
| 20260905095528 | 55 | 0 | 0.0 | 0.0 | 0.00 | 0.00 | 0.00 | 98 | 1010.2 |
| 20260905095029 | 56 | 0 | 0.0 | 0.0 | 0.00 | 0.00 | 0.00 | 98 | 1010.3 |
| 20260905094552 | 56 | 0 | 0.0 | 0.0 | 0.00 | 0.00 | 0.00 | 98 | 1010.3 |
| 20260905094028 | 56 | 0 | 0.0 | 0.0 | 0.00 | 0.00 | 0.00 | 98 | 1010.2 |
| 20260905093531 | 56 | 0 | 0.0 | 0.0 | 0.00 | 0.00 | 0.00 | 98 | 1010.2 |
| 20260905093052 | 56 | 0 | 0.0 | 0.0 | 0.00 | 0.00 | 0.00 | 98 | 1010.1 |
| 20260905092527 | 56 | 0 | 0.0 | 0.0 | 0.00 | 0.00 | 0.00 | 98 | 1010.2 |
| 20260905092027 | 56 | 0 | 0.0 | 0.0 | 0.00 | 0.00 | 0.00 | 98 | 1010.1 |
| 20260905091614 | 56 | 0 | 0.0 | 0.0 | 0.00 | 0.00 | 0.00 | 98 | 1009.9 |
| 20260905091033 | 57 | 0 | 0.0 | 0.0 | 0.00 | 0.00 | 0.00 | 98 | 1009.9 |
| 20260905090525 | 57 | 0 | 0.0 | 0.0 | 0.00 | 0.00 | 0.00 | 98 | 1009.9 |
| 20260905090044 | 57 | 0 | 0.0 | 0.0 | 0.00 | 0.00 | 0.00 | 98 | 1009.9 |
| 20260905085529 | 57 | 0 | 0.0 | 0.0 | 0.00 | 0.00 | 0.00 | 98 | 1009.9 |
| 20260905085027 | 57 | 0 | 0.0 | 0.0 | 0.00 | 0.00 | 0.00 | 98 | 1010.1 |
| 20260905084545 | 57 | 0 | 0.0 | 0.0 | 0.00 | 0.00 | 0.00 | 98 | 1010.0 |
| 20260905084029 | 57 | 0 | 0.0 | 0.0 | 0.00 | 0.00 | 0.00 | 98 | 1009.9 |
| 20260905083530 | 57 | 0 | 0.0 | 0.0 | 0.00 | 0.00 | 0.00 | 98 | 1010.1 |
| 20260905083053 | 57 | 0 | 0.0 | 0.0 | 0.00 | 0.00 | 0.00 | 98 | 1009.9 |
| 20260905082527 | 57 | 0 | 0.0 | 0.0 | 0.00 | 0.00 | 0.00 | 98 | 1009.9 |
| 20260905082026 | 57 | 0 | 0.0 | 0.0 | 0.00 | 0.00 | 0.00 | 97 | 1009.9 |
| 20260905081551 | 58 | 0 | 0.0 | 0.0 | 0.00 | 0.00 | 0.00 | 98 | 1009.8 |
| 20260905081026 | 58 | 0 | 0.0 | 0.0 | 0.00 | 0.00 | 0.00 | 98 | 1009.9 |
| 20260905080525 | 58 | 0 | 0.0 | 0.0 | 0.00 | 0.00 | 0.00 | 98 | 1010.0 |
| 20260905080050 | 58 | 0 | 0.0 | 0.0 | 0.00 | 0.00 | 0.00 | 98 | 1010.1 |
| 20260905075525 | 58 | 0 | 0.0 | 0.0 | 0.00 | 0.00 | 0.00 | 98 | 1010.1 |
| 20260905075028 | 58 | 0 | 0.0 | 0.0 | 0.00 | 0.00 | 0.00 | 98 | 1010.0 |
| 20260905074545 | 57 | 0 | 0.0 | 0.0 | 0.00 | 0.00 | 0.00 | 97 | 1010.1 |
| 20260905074033 | 57 | 0 | 0.0 | 0.0 | 0.00 | 0.00 | 0.00 | 97 | 1010.2 |
| 20260905073528 | 58 | 0 | 0.0 | 0.0 | 0.00 | 0.00 | 0.00 | 97 | 1010.0 |
| 20260905073052 | 58 | 0 | 0.0 | 0.0 | 0.00 | 0.00 | 0.00 | 98 | 1010.2 |
| 20260905072527 | 58 | 0 | 0.0 | 0.0 | 0.00 | 0.00 | 0.00 | 97 | 1010.1 |
| 20260905072027 | 58 | 0 | 0.0 | 0.0 | 0.00 | 0.00 | 0.00 | 97 | 1010.3 |
| 20260905071551 | 58 | 0 | 0.0 | 0.0 | 0.00 | 0.00 | 0.00 | 97 | 1010.1 |
| 20260905071029 | 58 | 0 | 0.0 | 0.0 | 0.00 | 0.00 | 0.00 | 97 | 1010.1 |
| 20260905070529 | 58 | 0 | 0.0 | 0.0 | 0.00 | 0.00 | 0.00 | 96 | 1010.1 |
| 20260905070136 | 58 | 0 | 0.0 | 0.0 | 0.00 | 0.00 | 0.00 | 97 | 1010.2 |
| 20260905065531 | 58 | 0 | 0.0 | 0.0 | 0.00 | 0.00 | 0.00 | 97 | 1010.2 |
| 20260905065028 | 58 | 0 | 0.0 | 0.0 | 0.00 | 0.00 | 0.00 | 96 | 1010.0 |
| 20260905064554 | 58 | 0 | 0.0 | 0.0 | 0.00 | 0.00 | 0.00 | 96 | 1010.3 |
| 20260905064028 | 58 | 0 | 0.0 | 0.0 | 0.00 | 0.00 | 0.00 | 96 | 1010.3 |
| 20260905063525 | 59 | 0 | 0.0 | 0.0 | 0.00 | 0.00 | 0.00 | 96 | 1010.2 |
| 20260905063053 | 59 | 0 | 0.0 | 0.0 | 0.00 | 0.00 | 0.00 | 96 | 1010.3 |
| 20260905062528 | 59 | 0 | 0.0 | 0.0 | 0.00 | 0.00 | 0.00 | 96 | 1010.2 |
| 20260905062028 | 59 | 0 | 0.0 | 0.0 | 0.00 | 0.00 | 0.00 | 96 | 1010.4 |
| 20260905061613 | 59 | 0 | 0.0 | 0.0 | 0.00 | 0.00 | 0.00 | 96 | 1010.1 |
| 20260905061026 | 59 | 0 | 0.0 | 0.0 | 0.00 | 0.00 | 0.00 | 96 | 1010.3 |
| 20260905060528 | 59 | 0 | 0.0 | 0.0 | 0.00 | 0.00 | 0.00 | 95 | 1010.4 |
| 20260905060046 | 59 | 0 | 0.0 | 0.0 | 0.00 | 0.00 | 0.00 | 95 | 1010.4 |
| 20260905055529 | 59 | 0 | 0.0 | 0.0 | 0.00 | 0.00 | 0.00 | 94 | 1010.6 |
| 20260905055032 | 60 | 0 | 0.0 | 0.0 | 0.00 | 0.00 | 0.00 | 94 | 1010.6 |
| 20260905054546 | 60 | 0 | 0.0 | 0.0 | 0.00 | 0.00 | 0.00 | 94 | 1010.5 |
| 20260905054028 | 60 | 0 | 0.0 | 0.0 | 0.00 | 0.00 | 0.00 | 94 | 1010.8 |
| 20260905053530 | 61 | 0 | 0.0 | 0.0 | 0.00 | 0.00 | 0.00 | 94 | 1010.8 |
| 20260905053054 | 61 | 0 | 0.0 | 0.0 | 0.00 | 0.00 | 0.00 | 93 | 1010.7 |
| 20260905052527 | 61 | 0 | 0.0 | 0.0 | 0.00 | 0.00 | 0.00 | 93 | 1010.7 |
| 20260905052027 | 62 | 0 | 0.0 | 0.0 | 0.00 | 0.00 | 0.00 | 92 | 1010.8 |
| 20260905051551 | 62 | 0 | 0.0 | 0.0 | 0.00 | 0.00 | 0.00 | 91 | 1010.9 |
| 20260905051026 | 62 | 0 | 0.0 | 0.0 | 0.00 | 0.00 | 0.00 | 91 | 1010.9 |
| 20260905050527 | 63 | 0 | 0.0 | 0.0 | 0.00 | 0.00 | 0.00 | 90 | 1010.8 |